Location: Anciles
(42.5833°N, 0.5167°E)
Time: 04:34:21
(UTC+00:00)

NOAA 11 - Pass Details

Date: 10 December 2019
Orbit: 833 x 849 km, 98.4° (Epoch: 23 January)

Event Time Altitude Azimuth Distance (km) Brightness Sun altitude
Rises 18:41:48 0° 165° (SSE) 3,376 7.3 -24.4°
Reaches altitude 10° 18:44:08 10° 165° (SSE) 2,448 6.5 -24.9°
Maximum altitude 18:49:35 89° 248° (WSW) 849 4.1 -25.8°
Drops below altitude 10° 18:55:06 10° 346° (NNW) 2,476 6.7 -26.8°
Sets 18:57:29 0° 347° (NNW) 3,418 7.4 -27.3°
